RH
71 76 79 84 84 90 90 85 84 83 87 90 87 88 85 85 83 89 81 87 81 85 81 81 84 80 77 81 80 83 76 78 81 90 92 93 93 86 76 75 74 82 84
68 72 71 81 88 92 87 86 85 84 87 89 88 84 84 86 84 84 85 75 85 86 82 85 84 72 83 81 83 87 90 92 84 85 84 94 95 90 93 86 56 56 73
66 71 70 78 78 89 89 90 88 88 87 88 88 89 87 88 88 87 87 86 88 88 88 89 83 83 87 86 87 90 90 84 90 92 92 93 98 96 96 85 73 66 55
72 69 68 74 70 69 74 76 91 91 90 91 88 90 88 88 87 87 88 90 91 88 89 88 87 88 83 86 85 86 89 93 92 95 94 94 95 98 98 97 88 77 70
95 92 73 69 68 78 88 86 92 91 93 90 91 89 89 90 84 91 92 92 92 91 90 89 85 86 92 94 91 90 91 94 96 96 97 95 94 98 98 99 97 96 84
98 94 93 88 87 87 89 92 91 90 93 91 92 91 89 78 84 86 91 93 91 92 92 91 89 90 92 94 93 96 94 94 94 98 98 96 94 94 96 97 99 99 98
98 98 95 92 88 89 90 90 89 90 92 91 91 92 92 93 89 86 85 91 92 93 92 93 91 83 95 94 93 92 90 87 92 96 97 97 94 97 96 93 96 97 97
98 98 97 94 91 88 90 90 93 94 92 94 94 93 93 95 96 94 92 91 92 91 90 91 92 93 95 97 97 96 71 73 88 87 96 94 94 93 97 94 93 89 66
98 98 99 97 96 96 96 93 92 95 95 96 96 95 92 98 96 95 98 98 97 96 96 92 94 96 92 97 97 88 87 84 79 80 79 77 76 79 82 93 92 85 83
92 95 97 97 98 98 98 99 99 99 99 99 99 99 99 99 100 100 100 99 96 96 98 94 95 96 98 96 97 96 93 79 69 72 63 67 64 59 68 59 61 59 61
96 95 98 98 99 98 99 99 99 99 99 99 99 99 98 98 98 100 100 99 98 99 99 96 95 93 92 90 89 82 75 67 70 68 77 82 80 70 69 67 76 81 87
97 98 99 99 99 99 99 99 98 98 99 99 99 99 99 99 99 100 100 100 97 96 98 99 99 98 98 94 85 88 87 86 90 96 98 99 99 99 98 96 96 93 86
97 99 99 99 99 100 99 100 100 99 99 100 99 100 100 99 99 99 98 98 96 99 100 99 99 100 100 99 97 96 96 98 99 99 99 99 98 97 91 84 80 73 68
99 99 99 99 99 99 99 99 99 98 97 98 99 99 99 99 100 100 99 99 98 99 98 99 99 99 98 99 99 99 99 99 98 99 99 99 98 98 97 92 82 68 66
98 98 96 92 93 96 93 91 89 88 86 92 90 90 97 96 94 99 100 99 99 100 99 99 99 99 99 100 100 99 100 99 99 98 96 90 78 69 58 61 69 69 75
99 98 98 96 91 89 86 83 89 91 93 95 93 81 94 99 99 100 100 100 100 99 91 98 99 99 98 99 99 98 90 87 88 84 79 74 69 65 60 55 52 57 63
98 99 99 98 99 96 91 88 87 81 85 93 98 99 98 98 98 99 100 100 100 96 98 99 98 97 96 95 84 80 81 81 73 79 72 66 64 58 56 57 58 59 60
96 97 97 98 92 91 88 86 84 85 86 80 79 87 98 98 99 100 100 98 98 97 97 96 94 89 85 80 77 76 73 62 64 66 63 63 64 57 64 63 68 68 62
94 96 94 93 94 92 93 87 80 80 78 79 71 78 90 98 100 100 100 98 96 98 98 96 90 88 83 76 75 75 71 70 69 69 63 59 62 61 66 60 57 66 68
68 62 82 91 94 94 93 91 90 82 84 81 79 73 82 86 91 97 99 95 92 86 87 84 83 81 80 79 80 79 80 71 71 76 71 71 67 69 71 60 56 61 73
72 64 67 65 72 71 71 80 85 88 88 86 82 71 78 81 80 82 86 86 87 84 81 79 79 80 84 83 84 79 73 68 71 70 77 74 62 60 65 66 62 65 65
66 66 64 69 59 61 59 59 57 56 67 66 71 70 80 71 69 79 80 78 76 76 72 83 82 76 81 81 80 76 76 70 68 71 71 69 65 68 67 65 67 66 57
63 54 54 64 50 60 58 59 60 57 53 60 61 60 65 64 60 60 69 67 67 72 78 74 76 76 78 75 78 73 65 64 69 68 68 66 66 67 65 63 64 68 69
60 58 53 58 66 63 64 60 57 57 54 54 54 53 52 51 49 48 57 55 67 70 74 73 70 69 72 71 70 68 67 68 66 61 63 64 65 68 67 67 65 64 66
64 58 56 56 55 54 53 50 52 60 52 48 48 43 50 49 49 59 57 62 63 68 72 71 72 64 65 63 63 64 64 73 62 65 65 63 60 62 63 67 66 64 58
62 60 65 59 66 58 58 54 52 53 51 55 49 53 58 57 55 54 59 58 62 60 62 63 62 56 58 60 53 60 76 77 64 70 61 62 67 75 62 58 60 65 63
Wind_Speed
13 11 9 7 7 6 6 5 5 4 6 6 6 6 5 3 4 4 5 4 3 3 3 3 5 5 4 2 1 2 3 1 2 2 2 4 5 8 7 5 6 5 7
15 13 11 9 7 7 7 7 6 7 6 7 7 6 6 4 5 5 6 4 3 5 5 5 7 4 3 3 1 1 2 3 1 1 2 2 3 4 5 7 6 6 5
12 14 12 12 11 8 7 7 8 7 7 7 7 6 6 6 6 5 6 6 5 5 5 5 6 5 5 3 2 1 1 1 1 2 1 2 4 5 4 5 6 6 6
4 12 13 12 14 12 12 11 7 7 7 7 6 7 7 7 6 6 6 6 6 6 6 6 6 6 6 7 5 4 2 1 1 0 1 1 2 3 3 5 4 4 5
9 13 8 10 9 8 11 11 8 8 7 7 6 6 5 5 5 7 6 6 7 7 6 5 3 3 4 3 2 3 3 2 2 2 2 1 2 2 4 4 4 5 4
6 10 19 7 7 7 7 8 8 8 7 7 7 7 6 5 7 7 5 6 7 6 6 6 5 6 5 4 3 3 1 4 4 3 3 3 4 4 3 4 4 4 4
6 4 17 9 8 6 5 5 6 6 6 7 7 7 7 7 11 8 5 4 5 5 6 6 4 3 6 6 6 10 9 8 5 2 2 2 3 1 2 3 4 3 3
7 6 11 16 5 5 6 6 5 4 5 5 6 6 5 2 8 4 1 3 3 4 4 3 1 2 2 6 6 6 6 5 4 4 5 4 3 4 4 2 3 5 5
4 8 8 5 8 7 7 5 3 1 2 3 2 4 3 4 4 4 2 3 4 5 3 5 3 4 3 4 4 8 7 7 11 16 14 12 13 16 11 2 2 4 3
5 6 7 6 4 3 5 4 4 5 6 6 8 8 10 6 10 9 6 2 4 1 4 5 9 4 4 7 4 7 8 6 6 6 5 10 12 12 18 10 5 3 4
5 4 6 7 5 4 6 3 2 4 7 7 7 6 7 6 5 7 6 2 3 2 4 3 3 3 9 11 8 7 7 10 10 8 6 6 7 9 9 10 10 5 4
7 7 6 7 7 3 6 3 4 4 6 4 6 4 4 4 8 7 7 5 2 4 3 4 4 6 12 12 11 13 14 9 5 5 5 5 5 5 5 5 5 4 4
6 7 7 7 6 4 4 5 3 2 3 4 4 5 3 2 4 10 8 10 10 7 5 9 10 10 11 11 12 11 8 4 5 5 4 3 2 2 2 1 3 4 5
5 8 8 8 8 8 6 5 4 4 2 4 4 3 4 4 3 3 3 5 10 9 10 5 7 9 10 7 5 5 4 3 4 4 3 2 2 1 2 3 3 3 2
7 7 7 6 6 6 7 5 4 2 2 3 3 3 4 4 2 1 2 2 3 6 6 4 3 2 3 3 3 3 3 3 4 3 3 3 2 2 2 2 1 2 3
6 5 4 4 4 4 5 4 10 8 10 11 8 6 4 7 6 8 10 9 8 3 3 3 3 3 3 3 3 3 2 3 2 2 2 2 1 2 2 2 2 2 4
5 5 4 4 4 2 3 4 4 5 11 11 12 12 9 6 9 10 11 9 6 3 3 4 5 4 2 3 3 3 2 3 3 1 2 4 4 3 1 2 2 3 3
4 5 3 3 4 3 2 3 4 4 3 2 6 5 6 5 8 8 8 7 3 4 2 3 3 4 3 2 2 2 2 2 1 2 3 2 2 2 2 2 2 2 3
4 4 4 4 4 5 4 3 3 5 4 4 3 2 4 6 4 3 4 1 2 3 4 3 3 3 3 3 3 3 3 3 3 2 2 2 2 2 2 3 3 4 4
3 5 5 4 3 4 4 5 5 5 5 4 4 4 4 3 2 3 4 3 3 2 4 4 4 4 4 4 3 3 2 2 2 2 3 2 1 1 4 4 3 2 2
4 5 7 3 4 5 5 5 5 5 4 4 4 6 10 5 5 4 4 5 4 4 5 5 5 4 5 5 4 4 4 4 4 4 2 3 3 3 3 4 4 5 2
5 5 6 6 5 5 4 5 5 5 6 6 4 5 13 4 4 5 5 5 5 3 4 6 5 5 5 5 5 5 4 5 4 3 3 4 4 3 3 3 3 2 2
2 4 6 3 8 6 4 5 4 5 5 5 5 5 5 5 5 4 5 5 5 3 4 5 5 4 5 5 5 5 4 4 5 5 5 5 4 4 3 2 2 2 3
4 5 4 5 6 6 5 4 4 4 6 6 6 6 6 5 6 6 5 4 4 4 5 5 5 7 5 5 5 5 5 4 5 6 8 6 4 5 4 3 4 5 4
4 5 4 3 5 5 3 3 2 3 4 5 8 7 6 6 5 6 6 6 6 6 7 6 5 8 9 11 8 9 8 13 9 9 5 6 6 7 6 4 5 5 5
5 5 3 2 4 2 4 5 4 3 1 4 4 4 6 6 5 4 5 5 5 5 7 6 8 11 11 11 11 10 9 12 10 10 7 5 5 5 5 6 6 3 4
Wind_Direction
179 178 169 175 186 192 185 180 172 176 172 185 177 192 177 212 221 183 211 211 262 272 285 303 292 273 282 340 9 19 1 48 111 311 154 150 130 154 116 113 109 102 105
174 178 182 179 186 186 189 188 203 194 193 180 178 181 214 227 233 222 204 219 230 242 256 265 268 277 299 279 336 330 86 61 108 216 249 175 126 147 148 138 134 116 111
172 175 183 189 189 191 202 193 195 195 190 194 184 191 209 218 228 230 205 210 228 233 241 248 263 267 266 250 240 309 38 64 154 143 253 57 87 148 155 124 134 115 105
220 173 186 186 199 196 198 200 195 187 193 205 206 200 199 205 219 222 214 219 227 228 240 247 267 271 257 232 215 209 171 96 318 28 277 244 151 184 138 155 156 120 154
5 350 197 195 199 187 180 189 180 185 191 188 207 220 209 201 213 221 225 222 221 234 244 251 238 129 84 24 214 230 185 175 208 221 237 276 241 195 199 190 170 161 178
31 345 304 180 197 207 184 178 173 196 194 184 199 201 218 218 204 196 222 231 221 218 235 256 250 180 171 163 145 56 58 195 200 193 214 213 258 219 178 180 152 161 197
131 40 309 264 171 180 182 162 160 173 172 188 199 197 208 210 187 192 198 212 204 229 226 235 252 239 180 153 126 119 89 49 353 147 215 197 242 300 270 212 198 155 172
117 137 270 284 236 185 184 190 207 186 206 206 211 216 212 169 178 176 152 249 233 240 238 264 210 294 344 167 165 124 88 52 11 60 79 74 19 316 279 252 173 108 90
155 188 235 284 298 243 210 170 117 31 290 280 292 265 235 116 97 103 119 266 261 262 90 48 61 97 40 75 152 130 94 76 74 76 70 56 43 29 10 123 100 141 127
253 194 217 218 209 207 101 95 101 87 72 67 62 47 59 77 35 22 8 304 274 306 88 87 64 118 99 83 153 143 126 157 116 61 35 35 34 30 30 35 355 123 115
166 124 101 92 98 100 84 57 79 96 93 89 88 74 77 59 50 21 358 281 295 65 118 84 53 102 107 94 96 135 127 116 105 96 85 70 54 44 35 27 27 10 55
105 109 104 99 89 75 101 64 63 99 95 90 103 82 63 74 47 36 20 44 61 97 93 88 61 53 70 77 88 102 101 104 105 97 87 65 68 68 82 76 59 32 43
102 98 93 86 88 74 87 94 57 62 96 115 121 111 111 121 76 57 49 73 79 91 85 99 100 65 71 75 82 91 85 89 103 93 90 91 102 128 139 105 78 73 60
85 95 85 76 71 42 45 35 38 30 107 119 97 116 122 84 65 53 61 74 76 92 106 90 86 90 90 85 93 88 98 105 109 108 104 106 115 200 171 205 192 192 141
78 77 80 82 77 73 62 39 76 13 318 77 68 86 100 98 86 14 45 92 94 110 112 107 93 77 97 95 77 74 87 108 108 123 138 151 203 244 229 114 34 183 200
74 65 73 85 101 117 111 89 53 65 45 55 72 92 70 64 88 106 95 91 106 93 71 77 71 61 69 71 78 74 41 78 73 97 99 152 234 233 228 180 146 46 96
100 100 94 96 97 104 108 114 96 40 59 49 54 62 68 116 107 110 107 104 88 59 90 113 115 112 131 132 135 127 132 142 146 188 246 232 189 186 316 349 3 143 121
129 156 144 153 141 148 164 152 131 139 137 103 42 93 73 99 120 123 122 112 97 85 115 118 136 145 165 146 135 97 123 113 124 136 137 175 138 135 120 100 84 105 111
168 187 164 153 159 167 160 160 162 146 139 137 135 87 83 78 81 52 9 320 177 159 163 175 175 173 154 165 167 164 169 176 172 175 173 175 173 141 94 121 112 118 110
159 135 156 170 169 179 184 189 198 161 154 165 173 175 149 124 163 206 227 248 260 202 183 182 177 165 170 182 185 184 178 169 187 195 228 236 225 16 161 148 131 119 96
185 176 179 185 218 215 193 189 178 163 179 177 197 171 178 174 192 193 209 227 235 238 178 175 173 180 178 186 179 183 182 199 209 214 230 175 130 92 101 127 112 102 123
204 195 195 194 202 217 192 169 169 162 152 162 153 179 184 204 193 195 211 225 240 236 169 158 165 174 171 173 181 187 193 203 208 171 143 128 107 110 105 108 107 130 159
160 221 247 196 168 179 198 192 187 192 181 164 163 165 183 207 229 230 205 194 176 148 136 137 152 156 166 168 176 178 176 182 186 152 149 149 141 143 144 163 166 190 205
302 312 326 181 157 172 183 210 240 168 172 173 168 180 191 203 202 210 214 209 191 175 175 163 169 172 186 184 183 184 195 190 167 164 159 157 164 181 181 203 212 222 221
254 279 314 321 173 175 186 191 213 238 211 178 165 182 208 211 208 197 193 191 185 176 183 183 187 199 190 188 195 199 201 177 173 173 161 167 192 200 202 208 221 225 194
248 252 248 125 82 125 178 197 217 225 171 187 193 166 167 195 216 205 191 189 188 194 188 188 197 199 187 192 199 188 180 190 170 174 171 176 190 209 198 217 251 224 167